Dewpoint
65 67 67 67 68 68 68 68 68 68 68 68 68 67 67 67 66 66 65 64 63 62 62 62 61 60 60 60 60 59 59 58 59 63 64 64 64 63 62 62 62 61 61 60 61 60 59 58 57 57 57 56
63 65 66 66 66 67 67 67 67 67 67 67 66 66 65 65 65 65 64 63 63 62 61 61 61 61 59 59 59 59 58 59 59 64 64 64 63 63 61 61 61 60 60 60 60 59 58 57 56 56 56 53
64 63 63 64 65 65 66 66 66 65 65 65 64 64 64 63 64 63 63 62 62 62 61 60 60 60 59 59 59 59 59 58 59 64 64 63 63 62 61 60 60 59 59 60 59 58 57 56 56 55 54 51
66 63 62 63 63 64 64 64 64 63 63 63 62 62 62 62 62 62 62 62 61 60 60 59 58 59 60 59 58 59 59 58 59 64 64 63 62 61 60 59 59 59 58 59 58 57 56 55 55 55 54 53
66 65 62 62 62 62 62 62 62 62 61 61 60 61 61 61 63 62 61 61 59 59 57 57 58 58 59 59 58 60 60 61 61 63 63 62 61 59 58 57 57 57 57 56 56 55 54 54 54 53 53 54
66 66 63 65 65 64 63 62 62 62 64 59 62 60 61 63 61 61 60 59 56 57 56 57 57 57 58 59 57 60 61 61 61 62 61 60 59 57 56 54 50 51 54 55 54 54 54 53 51 52 53 53
66 66 65 65 65 65 63 62 62 64 63 62 62 61 62 61 60 59 58 57 56 56 56 56 56 57 58 58 60 61 61 61 60 60 59 58 57 55 54 51 50 50 49 49 52 52 50 51 50 51 52 52
65 65 65 65 66 66 65 64 63 63 63 62 62 62 62 60 59 58 56 53 52 53 55 56 56 56 56 57 58 58 59 59 58 57 57 56 55 56 53 51 50 50 50 47 46 46 47 49 51 51 51 51
64 65 65 65 65 65 65 63 64 63 63 62 62 61 61 58 56 55 54 53 54 54 54 54 54 54 54 54 55 55 54 53 53 52 52 52 52 51 51 51 49 49 46 44 45 45 46 48 50 50 50 49
64 65 65 64 64 64 64 63 63 62 62 62 61 59 58 56 55 55 55 54 53 53 53 53 53 53 53 52 52 52 51 50 50 49 49 48 47 46 45 47 47 45 44 44 43 43 45 46 49 49 49 48
64 63 64 63 64 63 63 63 62 62 61 61 60 58 56 55 54 54 54 54 54 54 53 53 52 52 51 51 50 49 48 48 47 47 46 45 43 43 41 41 42 42 42 41 40 41 43 45 48 49 48 47
63 63 62 62 62 62 61 62 62 62 61 61 59 57 55 55 55 55 54 52 52 52 52 52 51 49 49 49 48 45 46 45 45 43 43 43 41 41 41 40 40 40 40 40 40 40 40 42 44 45 45 46
62 62 62 61 61 61 60 62 62 62 62 61 60 58 55 55 54 53 53 51 50 50 49 48 45 45 45 44 43 43 43 44 42 40 41 41 39 38 38 38 39 39 38 37 37 37 38 39 41 43 44 44
60 58 58 57 57 56 57 59 59 60 61 61 59 58 57 56 55 54 52 49 46 45 43 42 41 41 40 39 40 41 42 42 40 40 40 39 38 37 37 36 36 36 36 35 35 35 35 36 37 40 41 41
53 53 52 52 52 52 52 52 51 50 52 54 57 56 56 55 54 53 50 46 42 42 40 39 39 38 38 38 39 40 40 39 39 39 39 38 38 37 35 34 35 34 33 33 33 33 33 33 32 33 36 38
48 47 47 47 48 47 48 49 50 49 48 47 48 53 55 54 53 52 51 48 43 41 38 37 37 37 37 37 38 38 38 39 38 38 38 37 36 34 32 32 33 33 33 32 31 31 31 31 30 30 30 31
47 46 45 44 44 44 44 45 45 45 46 47 46 45 47 52 52 51 49 49 48 43 43 45 38 41 37 36 36 36 39 40 40 37 37 37 33 31 30 30 31 34 30 30 29 28 27 27 27 27 27 27
45 44 44 43 43 43 42 41 41 40 41 42 45 45 44 43 46 51 51 49 48 48 47 40 38 40 37 40 37 36 36 36 35 34 33 32 31 33 31 30 30 30 29 29 28 27 27 26 25 25 25 25
41 40 41 41 40 41 41 40 40 39 39 38 40 41 42 42 42 42 48 49 48 48 47 45 41 37 43 35 38 36 36 35 35 34 32 31 31 31 31 31 30 29 27 26 25 24 24 23 22 23 23 23
40 39 38 38 38 38 38 38 37 37 37 38 38 38 38 39 40 40 41 43 46 47 47 45 42 38 37 37 37 36 36 33 33 33 34 32 31 30 30 29 28 27 25 24 23 23 22 22 22 22 22 21
39 38 38 37 36 36 35 35 35 36 37 37 36 36 36 37 38 39 40 40 41 42 42 42 42 41 42 42 39 37 33 30 32 33 35 32 32 30 29 29 28 26 25 24 22 20 19 20 20 20 21 20
37 37 37 37 36 35 35 34 34 34 34 34 35 36 35 35 36 37 37 39 39 39 39 39 39 40 40 41 41 39 35 33 33 33 32 31 31 31 30 28 26 24 24 24 21 17 17 17 18 18 19 20
38 37 36 36 35 34 34 33 33 34 33 33 33 33 34 35 35 35 36 37 37 37 37 38 38 38 39 40 39 39 39 39 39 36 34 32 31 30 28 26 24 22 22 22 20 16 14 14 14 16 18 18
39 39 38 38 36 34 33 32 32 31 32 32 32 33 34 33 34 34 35 35 36 36 36 36 36 36 37 38 38 37 37 37 37 38 33 30 27 25 24 23 21 19 17 16 15 15 12 12 12 13 15 14
40 39 38 37 34 32 32 32 31 30 30 31 31 31 32 32 33 33 33 34 34 35 35 35 35 35 35 36 36 35 34 35 36 37 33 31 28 25 22 21 20 19 17 15 15 15 14 13 12 14 12 12
37 36 36 35 33 32 31 31 30 29 30 29 30 30 30 31 32 32 33 34 33 33 33 33 33 33 33 34 34 33 34 34 34 34 35 36 33 31 25 29 29 29 18 20 15 14 14 13 11 12 10 11
33 32 32 33 32 31 29 30 29 29 29 29 29 29 29 30 30 31 31 32 33 32 32 32 32 32 33 33 33 33 33 33 33 33 33 33 32 31 30 28 26 25 28 24 20 18 18 14 14 16 12 11
31 31 31 31 30 30 30 29 30 29 30 29 28 27 27 28 29 29 29 29 30 31 31 32 32 32 32 32 33 33 32 32 32 32 32 33 32 31 28 30 26 25 24 26 23 21 26 21 21 17 13 11
31 31 31 31 30 31 31 31 31 29 28 27 27 26 26 26 26 27 28 28 29 30 29 30 31 31 31 31 32 32 31 31 31 31 32 32 32 32 29 29 27 26 26 25 26 29 25 24 23 24 15 10
32 32 32 32 31 31 30 30 30 28 27 26 25 24 25 25 25 26 26 27 27 28 28 28 29 29 29 29 30 30 30 30 31 30 31 32 32 31 30 29 29 26 26 25 26 25 25 27 28 20 15 18
33 32 33 33 33 33 32 28 26 26 26 25 25 24 23 23 23 23 24 24 25 26 26 26 26 27 27 27 27 27 28 27 27 27 27 29 30 30 31 31 29 26 24 25 25 25 26 26 26 26 19 21